QPF
0.00 0.01 0.02 0.02 0.01 0.01 0.01 0.00 0.01 0.01 0.02 0.02 0.01 0.01 0.04 0.06 0.03 0.04 0.02 0.01 0.02 0.02 0.02 0.01 0.00 0.00 0.00 0.00 0.00 0.00 0.00 0.01 0.01 0.01 0.01 0.01 0.01 0.01 0.01 0.02 0.02 0.03 0.04 0.05
0.00 0.01 0.01 0.00 0.00 0.01 0.01 0.01 0.01 0.01 0.02 0.03 0.02 0.02 0.02 0.03 0.02 0.01 0.01 0.01 0.01 0.02 0.02 0.01 0.00 0.01 0.01 0.01 0.01 0.00 0.00 0.00 0.01 0.01 0.01 0.01 0.01 0.01 0.02 0.02 0.03 0.04 0.04 0.05
0.00 0.01 0.00 0.00 0.00 0.00 0.00 0.00 0.00 0.01 0.02 0.01 0.01 0.03 0.05 0.04 0.03 0.01 0.01 0.01 0.01 0.02 0.03 0.02 0.01 0.01 0.02 0.02 0.01 0.00 0.00 0.00 0.00 0.01 0.01 0.01 0.01 0.01 0.01 0.02 0.04 0.04 0.04 0.03
0.00 0.01 0.01 0.00 0.00 0.00 0.00 0.00 0.00 0.00 0.01 0.00 0.00 0.01 0.04 0.06 0.06 0.03 0.01 0.02 0.03 0.03 0.03 0.03 0.03 0.03 0.03 0.02 0.01 0.01 0.01 0.01 0.00 0.00 0.01 0.01 0.01 0.02 0.02 0.03 0.04 0.05 0.04 0.03
0.00 0.00 0.00 0.00 0.00 0.00 0.00 0.00 0.00 0.00 0.00 0.00 0.00 0.01 0.01 0.02 0.06 0.03 0.01 0.02 0.04 0.03 0.04 0.03 0.02 0.02 0.02 0.02 0.01 0.01 0.01 0.01 0.01 0.00 0.00 0.01 0.01 0.01 0.02 0.03 0.03 0.04 0.05 0.05
0.00 0.01 0.01 0.01 0.00 0.00 0.00 0.01 0.01 0.00 0.00 0.01 0.01 0.02 0.02 0.01 0.02 0.02 0.01 0.01 0.01 0.01 0.02 0.01 0.01 0.01 0.02 0.02 0.02 0.01 0.01 0.01 0.01 0.01 0.01 0.01 0.01 0.01 0.02 0.03 0.03 0.05 0.05 0.06
0.00 0.01 0.01 0.00 0.00 0.00 0.01 0.02 0.02 0.02 0.01 0.01 0.01 0.01 0.01 0.01 0.02 0.02 0.01 0.00 0.01 0.02 0.03 0.03 0.01 0.01 0.03 0.04 0.04 0.02 0.02 0.01 0.01 0.02 0.02 0.02 0.02 0.02 0.03 0.02 0.02 0.03 0.05 0.06
0.01 0.01 0.01 0.00 0.00 0.01 0.01 0.01 0.01 0.04 0.05 0.04 0.03 0.01 0.01 0.01 0.02 0.02 0.01 0.01 0.01 0.01 0.03 0.02 0.01 0.01 0.03 0.04 0.04 0.04 0.03 0.03 0.03 0.03 0.02 0.02 0.03 0.03 0.03 0.03 0.03 0.04 0.05 0.05
0.01 0.01 0.01 0.01 0.01 0.00 0.00 0.00 0.01 0.02 0.04 0.04 0.03 0.03 0.02 0.03 0.03 0.03 0.02 0.01 0.01 0.01 0.02 0.01 0.01 0.01 0.03 0.03 0.04 0.04 0.04 0.04 0.04 0.03 0.03 0.03 0.03 0.03 0.04 0.03 0.03 0.04 0.05 0.04
0.01 0.01 0.00 0.00 0.00 0.00 0.00 0.00 0.00 0.01 0.01 0.02 0.02 0.03 0.04 0.04 0.03 0.03 0.02 0.01 0.01 0.02 0.02 0.02 0.01 0.02 0.02 0.03 0.03 0.03 0.03 0.02 0.02 0.02 0.02 0.02 0.03 0.03 0.03 0.03 0.03 0.03 0.03 0.03
0.02 0.01 0.01 0.00 0.00 0.00 0.00 0.01 0.00 0.00 0.00 0.00 0.01 0.01 0.02 0.04 0.02 0.01 0.01 0.01 0.01 0.02 0.02 0.02 0.02 0.02 0.02 0.03 0.03 0.03 0.02 0.02 0.01 0.01 0.01 0.01 0.02 0.02 0.02 0.03 0.02 0.02 0.02 0.04
0.06 0.03 0.02 0.01 0.00 0.00 0.00 0.01 0.02 0.01 0.01 0.01 0.01 0.01 0.00 0.01 0.02 0.01 0.01 0.01 0.01 0.02 0.03 0.03 0.02 0.02 0.03 0.04 0.04 0.04 0.03 0.03 0.02 0.01 0.01 0.02 0.02 0.03 0.03 0.03 0.03 0.03 0.03 0.02
0.05 0.04 0.01 0.01 0.01 0.00 0.00 0.01 0.01 0.01 0.00 0.00 0.00 0.00 0.00 0.01 0.01 0.01 0.01 0.01 0.01 0.01 0.01 0.02 0.03 0.04 0.04 0.05 0.06 0.06 0.05 0.04 0.03 0.03 0.02 0.03 0.03 0.03 0.02 0.02 0.03 0.03 0.02 0.02
0.02 0.01 0.01 0.01 0.01 0.01 0.01 0.01 0.00 0.01 0.00 0.00 0.00 0.01 0.01 0.00 0.00 0.00 0.01 0.01 0.01 0.01 0.01 0.01 0.01 0.03 0.05 0.07 0.08 0.07 0.06 0.06 0.06 0.06 0.05 0.03 0.03 0.03 0.03 0.02 0.02 0.02 0.02 0.02
0.01 0.01 0.01 0.01 0.01 0.01 0.01 0.01 0.01 0.00 0.00 0.01 0.01 0.01 0.01 0.01 0.01 0.01 0.01 0.01 0.01 0.01 0.01 0.02 0.02 0.04 0.06 0.09 0.10 0.10 0.08 0.08 0.07 0.06 0.06 0.05 0.04 0.04 0.04 0.03 0.02 0.02 0.02 0.02
0.02 0.02 0.01 0.01 0.01 0.01 0.01 0.02 0.01 0.01 0.01 0.01 0.01 0.01 0.01 0.01 0.01 0.01 0.01 0.01 0.01 0.02 0.02 0.03 0.03 0.04 0.06 0.10 0.11 0.13 0.12 0.10 0.09 0.08 0.07 0.06 0.05 0.05 0.05 0.04 0.04 0.04 0.04 0.03
0.04 0.03 0.02 0.02 0.02 0.02 0.02 0.02 0.02 0.02 0.01 0.01 0.01 0.01 0.01 0.01 0.01 0.01 0.01 0.01 0.01 0.02 0.02 0.03 0.03 0.04 0.04 0.06 0.08 0.11 0.11 0.11 0.11 0.09 0.09 0.09 0.08 0.08 0.08 0.07 0.07 0.07 0.07 0.05
0.03 0.03 0.03 0.03 0.03 0.03 0.04 0.03 0.03 0.03 0.02 0.01 0.01 0.01 0.01 0.01 0.01 0.01 0.01 0.01 0.02 0.03 0.03 0.03 0.03 0.03 0.03 0.05 0.07 0.09 0.10 0.10 0.08 0.06 0.06 0.05 0.06 0.09 0.10 0.09 0.09 0.10 0.11 0.08
0.04 0.03 0.03 0.03 0.04 0.04 0.04 0.03 0.03 0.03 0.03 0.02 0.01 0.01 0.01 0.01 0.01 0.01 0.02 0.03 0.04 0.04 0.04 0.05 0.07 0.04 0.03 0.05 0.07 0.08 0.06 0.06 0.04 0.04 0.04 0.04 0.04 0.05 0.06 0.07 0.07 0.11 0.13 0.07
0.06 0.05 0.05 0.06 0.07 0.07 0.06 0.05 0.04 0.04 0.03 0.01 0.01 0.01 0.01 0.02 0.02 0.03 0.03 0.03 0.03 0.03 0.04 0.04 0.09 0.08 0.05 0.06 0.07 0.07 0.07 0.06 0.04 0.03 0.03 0.02 0.02 0.02 0.03 0.03 0.04 0.06 0.07 0.05
0.05 0.06 0.07 0.08 0.09 0.08 0.05 0.04 0.03 0.03 0.02 0.02 0.02 0.02 0.02 0.02 0.02 0.03 0.04 0.04 0.05 0.04 0.03 0.04 0.05 0.07 0.07 0.06 0.07 0.06 0.08 0.07 0.05 0.04 0.03 0.02 0.01 0.01 0.01 0.02 0.02 0.02 0.02 0.02
0.05 0.05 0.05 0.05 0.06 0.05 0.03 0.02 0.02 0.03 0.02 0.02 0.02 0.02 0.02 0.02 0.02 0.03 0.04 0.04 0.04 0.04 0.02 0.02 0.02 0.03 0.04 0.06 0.07 0.05 0.04 0.03 0.03 0.03 0.02 0.02 0.02 0.01 0.01 0.01 0.01 0.01 0.01 0.01
0.06 0.06 0.06 0.05 0.05 0.05 0.04 0.03 0.02 0.02 0.02 0.02 0.02 0.02 0.02 0.02 0.02 0.04 0.04 0.03 0.03 0.04 0.03 0.02 0.02 0.04 0.04 0.02 0.04 0.05 0.03 0.02 0.02 0.03 0.02 0.02 0.02 0.02 0.01 0.01 0.01 0.01 0.01 0.01
0.07 0.06 0.06 0.05 0.04 0.04 0.04 0.03 0.03 0.03 0.03 0.03 0.03 0.03 0.02 0.03 0.03 0.03 0.02 0.02 0.02 0.04 0.05 0.04 0.04 0.04 0.04 0.02 0.02 0.02 0.02 0.02 0.02 0.03 0.02 0.02 0.02 0.02 0.02 0.02 0.01 0.01 0.01 0.01
0.05 0.05 0.05 0.05 0.04 0.04 0.03 0.03 0.02 0.03 0.03 0.03 0.03 0.04 0.03 0.04 0.04 0.04 0.03 0.02 0.03 0.03 0.06 0.06 0.05 0.06 0.05 0.04 0.03 0.02 0.02 0.02 0.02 0.02 0.02 0.02 0.02 0.02 0.02 0.02 0.02 0.01 0.00 0.00
0.05 0.05 0.05 0.04 0.04 0.04 0.03 0.03 0.03 0.04 0.04 0.04 0.04 0.05 0.05 0.05 0.04 0.04 0.03 0.02 0.03 0.04 0.04 0.05 0.05 0.06 0.06 0.06 0.05 0.03 0.03 0.02 0.02 0.01 0.01 0.01 0.01 0.01 0.01 0.01 0.01 0.01 0.01 0.01
0.05 0.04 0.04 0.04 0.04 0.04 0.03 0.03 0.03 0.04 0.03 0.04 0.04 0.04 0.05 0.06 0.04 0.03 0.03 0.03 0.04 0.05 0.04 0.04 0.05 0.05 0.05 0.05 0.04 0.03 0.02 0.02 0.02 0.01 0.01 0.01 0.01 0.01 0.01 0.01 0.01 0.01 0.01 0.01
MSLP
1007.41 1006.91 1006.34 1005.74 1005.15 1004.64 1004.21 1003.88 1003.65 1003.51 1003.42 1003.38 1003.34 1003.27 1003.15 1002.95 1002.67 1002.31 1001.88 1001.42 1000.98 1000.63 1000.43 1000.43 1000.67 1001.17 1001.93 1002.91 1004.05 1005.26 1006.48 1007.63 1008.68 1009.59 1010.37 1011.03 1011.61 1012.15 1012.68 1013.21 1013.75 1014.29 1014.81 1015.28
1008.25 1007.69 1006.99 1006.19 1005.38 1004.61 1003.96 1003.47 1003.15 1003.02 1003.04 1003.18 1003.38 1003.59 1003.74 1003.78 1003.69 1003.45 1003.09 1002.63 1002.16 1001.73 1001.45 1001.35 1001.51 1001.94 1002.62 1003.53 1004.59 1005.72 1006.86 1007.93 1008.89 1009.73 1010.45 1011.08 1011.64 1012.19 1012.74 1013.31 1013.90 1014.50 1015.07 1015.59
1008.90 1008.33 1007.57 1006.67 1005.72 1004.80 1003.99 1003.38 1002.99 1002.84 1002.92 1003.17 1003.54 1003.94 1004.28 1004.51 1004.56 1004.42 1004.11 1003.67 1003.17 1002.70 1002.34 1002.17 1002.25 1002.60 1003.21 1004.03 1005.01 1006.07 1007.12 1008.12 1009.02 1009.80 1010.48 1011.08 1011.65 1012.21 1012.79 1013.40 1014.04 1014.68 1015.30 1015.85
1009.24 1008.72 1007.97 1007.06 1006.07 1005.08 1004.21 1003.53 1003.09 1002.93 1003.02 1003.33 1003.79 1004.29 1004.75 1005.08 1005.22 1005.15 1004.88 1004.45 1003.93 1003.42 1003.02 1002.79 1002.81 1003.08 1003.61 1004.36 1005.27 1006.25 1007.24 1008.18 1009.03 1009.78 1010.44 1011.04 1011.62 1012.20 1012.80 1013.45 1014.11 1014.78 1015.42 1015.99
1009.19 1008.75 1008.08 1007.24 1006.29 1005.34 1004.48 1003.79 1003.34 1003.16 1003.26 1003.58 1004.06 1004.59 1005.09 1005.47 1005.65 1005.62 1005.38 1004.96 1004.44 1003.92 1003.48 1003.21 1003.17 1003.38 1003.85 1004.53 1005.37 1006.29 1007.23 1008.13 1008.95 1009.69 1010.36 1010.96 1011.55 1012.14 1012.76 1013.42 1014.09 1014.77 1015.41 1015.98
1008.74 1008.39 1007.84 1007.12 1006.29 1005.44 1004.66 1004.02 1003.60 1003.43 1003.52 1003.82 1004.28 1004.81 1005.31 1005.69 1005.89 1005.88 1005.66 1005.26 1004.75 1004.23 1003.78 1003.48 1003.40 1003.56 1003.96 1004.58 1005.35 1006.22 1007.12 1008.00 1008.81 1009.56 1010.23 1010.85 1011.45 1012.05 1012.67 1013.32 1013.98 1014.64 1015.26 1015.83
1007.93 1007.66 1007.24 1006.67 1006.01 1005.31 1004.65 1004.12 1003.76 1003.62 1003.70 1003.99 1004.42 1004.92 1005.39 1005.77 1005.98 1005.99 1005.80 1005.43 1004.96 1004.45 1004.00 1003.69 1003.56 1003.67 1004.01 1004.56 1005.27 1006.10 1006.96 1007.82 1008.64 1009.40 1010.09 1010.73 1011.34 1011.94 1012.55 1013.18 1013.81 1014.44 1015.04 1015.59
1006.83 1006.63 1006.33 1005.92 1005.44 1004.91 1004.42 1004.00 1003.73 1003.64 1003.74 1004.01 1004.42 1004.90 1005.36 1005.73 1005.96 1006.00 1005.86 1005.54 1005.11 1004.64 1004.20 1003.88 1003.72 1003.77 1004.04 1004.52 1005.17 1005.94 1006.77 1007.62 1008.44 1009.21 1009.93 1010.59 1011.22 1011.82 1012.42 1013.02 1013.63 1014.22 1014.80 1015.33
1005.59 1005.43 1005.22 1004.96 1004.64 1004.29 1003.95 1003.67 1003.50 1003.46 1003.59 1003.87 1004.27 1004.73 1005.19 1005.59 1005.85 1005.95 1005.87 1005.62 1005.25 1004.82 1004.40 1004.07 1003.87 1003.87 1004.06 1004.47 1005.04 1005.75 1006.55 1007.38 1008.21 1009.01 1009.75 1010.45 1011.10 1011.71 1012.31 1012.89 1013.47 1014.04 1014.60 1015.12
1004.31 1004.17 1004.04 1003.89 1003.70 1003.50 1003.30 1003.14 1003.06 1003.09 1003.25 1003.55 1003.95 1004.42 1004.90 1005.33 1005.65 1005.82 1005.82 1005.65 1005.35 1004.97 1004.57 1004.23 1004.00 1003.93 1004.04 1004.36 1004.87 1005.51 1006.27 1007.09 1007.94 1008.76 1009.55 1010.29 1010.97 1011.62 1012.23 1012.81 1013.38 1013.94 1014.48 1015.00
1003.12 1002.97 1002.88 1002.81 1002.72 1002.63 1002.54 1002.47 1002.47 1002.55 1002.74 1003.05 1003.47 1003.96 1004.47 1004.95 1005.33 1005.58 1005.67 1005.59 1005.36 1005.03 1004.65 1004.30 1004.03 1003.89 1003.93 1004.17 1004.60 1005.19 1005.92 1006.74 1007.60 1008.46 1009.30 1010.10 1010.84 1011.53 1012.17 1012.78 1013.36 1013.92 1014.45 1014.97
1002.05 1001.90 1001.83 1001.80 1001.78 1001.75 1001.73 1001.72 1001.75 1001.87 1002.08 1002.41 1002.84 1003.35 1003.89 1004.42 1004.87 1005.19 1005.37 1005.36 1005.20 1004.92 1004.56 1004.20 1003.90 1003.71 1003.68 1003.86 1004.23 1004.78 1005.48 1006.31 1007.20 1008.11 1009.02 1009.88 1010.70 1011.44 1012.13 1012.77 1013.37 1013.94 1014.47 1014.97
1001.09 1000.94 1000.88 1000.88 1000.89 1000.90 1000.90 1000.91 1000.97 1001.09 1001.31 1001.63 1002.07 1002.60 1003.17 1003.74 1004.25 1004.64 1004.88 1004.95 1004.84 1004.60 1004.27 1003.91 1003.58 1003.36 1003.29 1003.42 1003.75 1004.28 1004.99 1005.83 1006.76 1007.74 1008.71 1009.65 1010.53 1011.34 1012.08 1012.76 1013.38 1013.95 1014.47 1014.95
1000.20 1000.06 1000.02 1000.02 1000.04 1000.06 1000.07 1000.08 1000.13 1000.24 1000.45 1000.77 1001.21 1001.74 1002.33 1002.93 1003.47 1003.91 1004.20 1004.32 1004.26 1004.06 1003.75 1003.40 1003.08 1002.85 1002.77 1002.89 1003.21 1003.75 1004.48 1005.35 1006.33 1007.37 1008.40 1009.41 1010.35 1011.22 1012.00 1012.70 1013.32 1013.88 1014.39 1014.83
999.31 999.20 999.18 999.19 999.21 999.22 999.21 999.21 999.24 999.34 999.54 999.85 1000.28 1000.81 1001.40 1002.00 1002.57 1003.03 1003.35 1003.51 1003.49 1003.32 1003.05 1002.74 1002.44 1002.24 1002.18 1002.32 1002.68 1003.25 1004.01 1004.93 1005.96 1007.04 1008.13 1009.18 1010.15 1011.05 1011.84 1012.54 1013.15 1013.69 1014.15 1014.55
998.38 998.31 998.30 998.32 998.34 998.33 998.31 998.30 998.32 998.40 998.59 998.89 999.31 999.83 1000.42 1001.02 1001.58 1002.05 1002.39 1002.56 1002.57 1002.44 1002.22 1001.96 1001.72 1001.58 1001.59 1001.79 1002.20 1002.83 1003.64 1004.61 1005.67 1006.78 1007.89 1008.95 1009.93 1010.82 1011.59 1012.26 1012.84 1013.32 1013.73 1014.07
997.39 997.35 997.36 997.39 997.40 997.39 997.36 997.34 997.35 997.44 997.63 997.92 998.34 998.85 999.42 1000.01 1000.55 1001.01 1001.34 1001.53 1001.57 1001.48 1001.32 1001.13 1000.98 1000.93 1001.03 1001.33 1001.83 1002.52 1003.39 1004.40 1005.48 1006.60 1007.70 1008.73 1009.68 1010.51 1011.23 1011.84 1012.35 1012.77 1013.11 1013.39
996.36 996.34 996.36 996.39 996.39 996.38 996.35 996.33 996.36 996.46 996.66 996.97 997.38 997.88 998.43 998.99 999.51 999.94 1000.26 1000.45 1000.51 1000.48 1000.39 1000.29 1000.26 1000.32 1000.55 1000.95 1001.55 1002.32 1003.25 1004.28 1005.36 1006.46 1007.51 1008.48 1009.35 1010.11 1010.74 1011.27 1011.69 1012.04 1012.31 1012.53
995.33 995.32 995.33 995.34 995.34 995.32 995.30 995.30 995.35 995.48 995.70 996.02 996.44 996.93 997.46 997.98 998.46 998.86 999.16 999.35 999.44 999.46 999.45 999.47 999.55 999.75 1000.11 1000.64 1001.34 1002.19 1003.16 1004.21 1005.27 1006.31 1007.29 1008.17 1008.94 1009.59 1010.12 1010.54 1010.89 1011.16 1011.37 1011.55
994.36 994.33 994.31 994.29 994.27 994.24 994.23 994.25 994.33 994.49 994.74 995.08 995.50 995.98 996.48 996.97 997.41 997.77 998.05 998.24 998.35 998.43 998.51 998.64 998.86 999.21 999.70 1000.36 1001.16 1002.08 1003.08 1004.12 1005.14 1006.12 1007.00 1007.77 1008.42 1008.95 1009.38 1009.71 1009.98 1010.19 1010.37 1010.53
993.50 993.41 993.34 993.27 993.22 993.17 993.16 993.20 993.31 993.50 993.78 994.14 994.56 995.03 995.50 995.95 996.34 996.67 996.93 997.12 997.27 997.41 997.59 997.83 998.19 998.67 999.30 1000.07 1000.96 1001.94 1002.96 1003.97 1004.95 1005.84 1006.62 1007.28 1007.82 1008.24 1008.57 1008.83 1009.04 1009.22 1009.39 1009.55
992.73 992.57 992.43 992.31 992.21 992.15 992.13 992.18 992.31 992.53 992.83 993.20 993.62 994.07 994.51 994.92 995.28 995.58 995.82 996.02 996.21 996.42 996.69 997.06 997.54 998.16 998.91 999.79 1000.75 1001.76 1002.78 1003.77 1004.68 1005.49 1006.17 1006.72 1007.16 1007.50 1007.76 1007.97 1008.15 1008.32 1008.51 1008.71
992.06 991.82 991.60 991.41 991.27 991.17 991.15 991.20 991.35 991.59 991.90 992.28 992.70 993.13 993.55 993.93 994.26 994.54 994.78 995.01 995.25 995.54 995.91 996.38 996.99 997.72 998.58 999.53 1000.55 1001.58 1002.59 1003.53 1004.38 1005.10 1005.70 1006.16 1006.52 1006.80 1007.02 1007.21 1007.39 1007.59 1007.81 1008.06
991.45 991.13 990.84 990.60 990.40 990.29 990.25 990.31 990.47 990.72 991.06 991.44 991.86 992.28 992.68 993.04 993.36 993.64 993.90 994.16 994.47 994.83 995.30 995.89 996.60 997.43 998.37 999.38 1000.42 1001.46 1002.44 1003.33 1004.10 1004.75 1005.27 1005.67 1005.98 1006.22 1006.42 1006.62 1006.83 1007.08 1007.35 1007.67
990.89 990.51 990.17 989.88 989.66 989.53 989.49 989.56 989.74 990.01 990.36 990.75 991.18 991.59 991.99 992.35 992.68 992.98 993.28 993.59 993.97 994.42 994.98 995.66 996.45 997.36 998.35 999.39 1000.44 1001.45 1002.39 1003.22 1003.93 1004.51 1004.96 1005.31 1005.58 1005.81 1006.03 1006.26 1006.52 1006.82 1007.17 1007.55
990.40 990.00 989.64 989.33 989.10 988.97 988.95 989.04 989.24 989.54 989.91 990.32 990.76 991.19 991.60 991.98 992.34 992.67 993.02 993.40 993.84 994.37 995.01 995.76 996.63 997.58 998.59 999.63 1000.66 1001.63 1002.50 1003.26 1003.90 1004.41 1004.81 1005.13 1005.39 1005.62 1005.87 1006.14 1006.46 1006.82 1007.24 1007.69
990.07 989.67 989.31 989.02 988.81 988.71 988.72 988.85 989.08 989.41 989.81 990.26 990.72 991.17 991.61 992.02 992.41 992.79 993.19 993.63 994.14 994.74 995.44 996.24 997.13 998.10 999.10 1000.11 1001.08 1001.98 1002.78 1003.47 1004.03 1004.48 1004.84 1005.13 1005.38 1005.63 1005.91 1006.23 1006.61 1007.04 1007.52 1008.03
Thickness
5805 5813 5816 5813 5813 5815 5809 5809 5802 5808 5809 5816 5823 5826 5828 5830 5828 5825 5823 5822 5824 5821 5819 5817 5814 5811 5809 5806 5804 5801 5794 5788 5784 5781 5779 5775 5772 5768 5764 5761 5759 5755 5751 5748
5788 5801 5806 5804 5810 5812 5814 5816 5810 5809 5809 5827 5828 5828 5823 5821 5820 5815 5814 5816 5817 5814 5812 5809 5808 5806 5803 5801 5799 5796 5790 5785 5782 5779 5775 5771 5768 5764 5760 5756 5754 5751 5747 5744
5768 5788 5791 5785 5805 5809 5810 5816 5811 5799 5808 5819 5816 5813 5815 5816 5814 5814 5812 5812 5810 5808 5805 5803 5803 5802 5798 5796 5794 5789 5784 5781 5778 5774 5770 5767 5764 5760 5756 5752 5750 5747 5744 5741
5761 5763 5747 5788 5820 5817 5810 5810 5816 5812 5816 5817 5816 5817 5819 5816 5810 5808 5810 5808 5807 5804 5802 5800 5799 5797 5795 5793 5788 5784 5779 5776 5773 5769 5765 5763 5760 5756 5752 5749 5745 5742 5740 5737
5749 5746 5757 5786 5804 5806 5796 5794 5809 5808 5810 5813 5815 5813 5808 5811 5809 5805 5806 5806 5803 5803 5801 5797 5794 5792 5789 5785 5782 5778 5774 5771 5769 5766 5761 5758 5754 5751 5748 5745 5741 5738 5735 5732
5742 5735 5740 5770 5797 5809 5796 5775 5800 5802 5800 5801 5801 5785 5789 5804 5804 5802 5802 5801 5799 5798 5795 5791 5788 5787 5782 5778 5775 5771 5769 5767 5765 5762 5758 5754 5750 5747 5744 5741 5737 5734 5731 5728
5735 5734 5751 5776 5793 5794 5760 5760 5787 5790 5790 5790 5785 5786 5793 5798 5798 5797 5795 5793 5793 5791 5786 5783 5781 5779 5773 5770 5768 5767 5765 5762 5759 5757 5754 5751 5747 5743 5740 5736 5732 5729 5725 5723
5730 5724 5734 5772 5775 5764 5763 5777 5779 5779 5781 5779 5780 5784 5785 5786 5788 5788 5786 5785 5784 5781 5777 5776 5776 5772 5766 5763 5764 5762 5759 5755 5753 5750 5749 5747 5741 5737 5734 5730 5726 5722 5718 5716
5733 5734 5750 5762 5763 5769 5774 5769 5770 5772 5775 5773 5770 5770 5772 5773 5774 5776 5777 5775 5775 5772 5768 5767 5768 5766 5759 5758 5758 5755 5751 5748 5746 5745 5743 5741 5736 5732 5727 5724 5720 5716 5713 5710
5727 5735 5745 5751 5757 5760 5763 5761 5763 5764 5765 5764 5760 5761 5761 5762 5764 5764 5765 5765 5765 5763 5758 5757 5758 5757 5755 5753 5751 5748 5744 5742 5740 5738 5736 5734 5731 5728 5723 5719 5715 5711 5708 5705
5713 5723 5730 5736 5741 5745 5749 5751 5751 5752 5753 5752 5751 5750 5751 5751 5752 5753 5755 5756 5755 5752 5749 5748 5749 5747 5748 5746 5744 5740 5737 5735 5734 5732 5730 5727 5724 5721 5719 5715 5711 5706 5705 5702
5698 5709 5710 5718 5729 5735 5734 5735 5736 5737 5739 5742 5741 5741 5741 5741 5740 5741 5741 5743 5742 5741 5740 5740 5739 5738 5738 5738 5736 5732 5729 5727 5726 5726 5724 5721 5717 5713 5710 5707 5703 5700 5698 5694
5698 5703 5707 5713 5720 5723 5724 5726 5728 5728 5729 5730 5732 5733 5731 5731 5732 5733 5732 5731 5731 5731 5732 5731 5730 5729 5730 5730 5728 5726 5723 5721 5721 5720 5718 5715 5712 5708 5703 5698 5694 5692 5690 5687
5692 5693 5693 5699 5703 5709 5711 5715 5718 5719 5721 5722 5723 5724 5723 5722 5722 5722 5721 5722 5724 5724 5723 5722 5722 5721 5723 5723 5721 5718 5717 5716 5714 5713 5711 5709 5707 5704 5701 5696 5690 5686 5682 5679
5681 5683 5684 5688 5692 5695 5699 5701 5701 5704 5708 5711 5713 5714 5713 5712 5711 5712 5714 5715 5714 5713 5713 5713 5712 5713 5715 5714 5712 5710 5709 5708 5707 5706 5704 5702 5699 5697 5694 5691 5687 5682 5679 5673
5670 5673 5675 5675 5678 5681 5684 5686 5687 5690 5695 5697 5699 5702 5704 5704 5703 5704 5704 5704 5702 5702 5703 5703 5703 5705 5706 5705 5703 5702 5700 5699 5698 5697 5696 5694 5692 5689 5686 5682 5679 5676 5673 5669
5656 5657 5659 5661 5666 5671 5674 5676 5678 5681 5684 5686 5688 5691 5693 5693 5693 5692 5693 5694 5694 5694 5694 5694 5695 5696 5696 5696 5695 5694 5693 5692 5691 5690 5688 5686 5684 5682 5679 5676 5673 5671 5668 5665
5652 5652 5653 5655 5657 5661 5665 5668 5671 5672 5674 5678 5680 5681 5681 5680 5680 5681 5683 5684 5683 5683 5685 5686 5687 5686 5686 5686 5685 5684 5684 5685 5685 5684 5682 5679 5676 5674 5672 5669 5668 5667 5664 5660
5644 5645 5647 5649 5652 5654 5657 5660 5662 5665 5667 5670 5670 5670 5670 5671 5672 5673 5674 5673 5671 5671 5674 5677 5676 5676 5676 5676 5675 5675 5676 5676 5675 5675 5673 5670 5668 5667 5665 5664 5662 5660 5658 5654
5636 5638 5640 5642 5646 5649 5651 5653 5655 5656 5658 5660 5661 5660 5660 5662 5663 5663 5663 5662 5664 5666 5668 5667 5667 5667 5668 5668 5666 5668 5667 5667 5666 5665 5663 5663 5662 5660 5659 5658 5657 5655 5652 5649
5630 5631 5633 5634 5637 5640 5643 5646 5647 5647 5649 5652 5652 5651 5652 5653 5655 5655 5653 5653 5656 5658 5659 5658 5659 5659 5659 5658 5657 5660 5660 5659 5658 5656 5655 5654 5654 5653 5652 5651 5650 5648 5646 5643
5622 5623 5625 5627 5629 5631 5635 5638 5640 5640 5642 5643 5645 5645 5645 5645 5647 5647 5648 5648 5650 5649 5651 5652 5652 5651 5651 5649 5651 5652 5652 5651 5650 5649 5647 5646 5646 5645 5645 5644 5642 5641 5639 5637
5614 5616 5618 5620 5621 5624 5627 5630 5632 5634 5635 5637 5637 5638 5638 5639 5641 5640 5640 5643 5645 5643 5644 5645 5644 5642 5641 5642 5644 5644 5644 5643 5642 5641 5640 5639 5638 5638 5637 5636 5635 5634 5632 5629
5608 5610 5612 5614 5617 5618 5620 5624 5627 5628 5630 5631 5632 5633 5633 5634 5635 5638 5638 5636 5636 5636 5638 5637 5635 5633 5632 5635 5636 5636 5635 5634 5633 5633 5632 5632 5632 5631 5630 5629 5628 5627 5626 5623
5602 5604 5607 5608 5609 5611 5615 5618 5620 5622 5624 5625 5626 5628 5630 5631 5630 5632 5633 5633 5630 5629 5631 5629 5626 5625 5626 5628 5629 5629 5628 5627 5627 5625 5624 5624 5624 5624 5623 5622 5621 5619 5618 5616
5596 5599 5600 5602 5603 5605 5608 5611 5612 5614 5616 5618 5619 5622 5624 5626 5626 5626 5627 5626 5626 5623 5624 5623 5621 5619 5621 5622 5623 5622 5622 5620 5619 5618 5618 5619 5618 5617 5616 5615 5614 5613 5611 5609
5592 5594 5595 5596 5598 5600 5603 5606 5607 5607 5609 5611 5612 5615 5617 5619 5620 5620 5620 5619 5619 5618 5618 5618 5617 5616 5616 5616 5616 5615 5615 5615 5615 5614 5614 5613 5612 5611 5610 5608 5607 5606 5604 5602